Regional Weather Roundup
Issued by NWS

Home | Current Version | Previous Version | Graphics & Text | Print | Product List | Glossary On
Versions: 1 2 3 4 5 6 7 8 9 10 11 12 13 14 15 16 17 18 19 20 21 22 23 24 25 26 27 28 29 30 31 32 33 34 35 36 37 38 39 40 41 42 43 44 45 46 47 48 49 50
000
ASUS45 KSLC 111210
RWRUT

UTAH REGIONAL WEATHER ROUNDUP
NATIONAL WEATHER SERVICE SALT LAKE CITY UT
500 AM MST THU FEB 11 2016

UTZ001>011-023>025-111300-

NORTHERN UTAH

CITY           SKY/WX    TMP DP  RH WIND       PRES   REMARKS
BRIGHAM CITY   CLOUDY    26  24  93 N5        30.48F WCI  20
HILL AFB       CLOUDY    23  20  87 E3        30.45R
LOGAN          CLOUDY    22  21  96 E6        30.48R FOG     WCI  14
OGDEN          CLOUDY    26  26 100 NW3       30.45R FOG
PROVO AIRPORT    N/A    N/A N/A N/A S5        30.44S VSB<1/4
SALT LAKE CITY CLOUDY    29  27  92 CALM      30.45S FOG
VERNAL         CLOUDY    11   7  84 CALM      30.40S
WENDOVER       CLOUDY    28  27  93 CALM      30.46R
HEBER CITY     PTCLDY     5   1  85 CALM      30.42S FOG
WEST JORDAN    CLOUDY    28  28 100 W5        30.44S WCI  23

$$

UTZ012>022-026-027-111300-

SOUTHERN/CENTRAL UTAH

CITY           SKY/WX    TMP DP  RH WIND       PRES   REMARKS
BLANDING       MOCLDY    28  19  70 CALM      30.43R
BRYCE CANYON   PTCLDY    16   5  62 W13       30.42S WCI   2
CEDAR CITY     PTCLDY    18  14  84 CALM      30.37S
DELTA          CLOUDY    10   8  92 S3        30.43S VSB 1/4
HANKSVILLE     MOCLDY    23  23 100 CALM      30.42S
MILFORD        FOG        6   4  91 S3        30.42S VSB 1/4
MOAB/CYNLANDS  PTCLDY    26  23  88 CALM      30.38S
PRICE          PTCLDY    20  14  77 NE8       30.37R WCI  10
ST GEORGE      MOSUNNY   37  21  52 CALM      30.33S
KANAB          CLEAR     28  27  93 NE3       30.38R

$$

REGIONAL REPORTS     COLORADO/ARIZONA

CITY           SKY/WX    TMP DP  RH WIND       PRES   REMARKS
CRAIG, CO      CLOUDY    -3  -7  82 CALM      30.40R
GRAND JUNCTION CLOUDY    22  20  92 E7        30.40S WCI  13
RIFLE          CLOUDY    15  10  80 CALM      30.43R
MONTROSE       CLOUDY    21  14  74 S9        30.44R WCI  11
CORTEZ         CLOUDY    16  12  84 NE7       30.37R WCI   6
PAGE, AZ       MOCLDY    34  28  79 CALM      30.36R
GRAND CANYON   MOCLDY    20  16  84 CALM      30.38R
KINGMAN        PTCLDY    39  50 100 SW5       30.24F
FLAGSTAFF      PTCLDY    19  14  81 CALM      30.38S

$$

REGIONAL REPORTS    NEVADA/IDAHO/WYOMING

CITY           SKY/WX    TMP DP  RH WIND       PRES   REMARKS
LAS VEGAS, NV  PTCLDY    48  25  40 SW3       30.20S
ELY            MOCLDY    15   7  70 S15       30.39S WCI   0
ELKO           CLOUDY    12   7  80 E3        30.42S
POCATELLO, ID  CLOUDY    21  18  88 E6        30.38F FOG     WCI  13
BURLEY         PTCLDY    21  19  92 CALM      30.37F
EVANSTON, WY   CLOUDY    26  11  52 SW10      30.38S WCI  16
ROCK SPRINGS   CLOUDY    30  14  51 W10       30.34R WCI  21

$$



USA.gov is the U.S. government's official web portal to all federal, state and local government web resources and services.